Simultaneous Nadir Overpasses (SNOs) Predictions

Prediction of SNOs between METOP-C and LANDSAT-8 Satellite Orbit:

Table of predicted SNOs for the next 14.0 days since TLE Epoch: 2/26/2022
Index Date (METOP-C) Time (METOP-C) Lat,Lon (METOP-C) SZA (METOP-C ) Date (LANDSAT-8) Time (LANDSAT-8) Lat,Lon (LANDSAT-8) SZA (LANDSAT-8 ) Distance(km) Time Diff (sec)
1 02/27/2022 02:09:18 81.08,-173.69 91.06 02/27/2022 02:10:06 81.08,-173.52 91.10 2.96 48
2 02/27/2022 02:59:58 -81.10, -5.61 88.87 02/27/2022 02:59:32 -81.10, -5.60 88.88 0.27 26
3 03/01/2022 21:43:41 81.08,-107.07 90.04 03/01/2022 21:44:21 81.08,-107.14 90.04 1.43 40
4 03/01/2022 22:34:22 -81.10, 60.66 89.93 03/01/2022 22:33:47 -81.10, 60.81 89.93 2.64 35
5 03/04/2022 17:18:04 81.09, -40.44 89.00 03/04/2022 17:18:35 81.10, -40.46 89.01 0.54 31
6 03/04/2022 18:08:44 -81.12, 127.67 90.92 03/04/2022 18:08:01 -81.12, 127.52 90.95 2.55 43
7 03/07/2022 12:52:27 81.09, 25.83 87.91 03/07/2022 12:52:49 81.08, 25.80 87.92 0.51 22
8 03/07/2022 13:43:07 -81.12,-166.07 92.01 03/07/2022 13:42:15 -81.11,-166.19 92.05 2.19 52
9 03/10/2022 08:26:50 81.10, 92.47 86.86 03/10/2022 08:27:03 81.09, 92.37 86.86 1.73 13



Historial Predications of SNOs between METOP-C and LANDSAT-8
